Weather History for Logrono, Spain

Change the Weather History Date:

Thursday, February 13, 2014

  Actual Average Record
Temperature  
Mean Temperature 50 °F -  
Max Temperature 65 °F - - ()
Min Temperature 34 °F - - ()
Degree Days  
Heating Degree Days 16    
Moisture  
Dew Point 40 °F    
Average Humidity 77    
Maximum Humidity 100    
Minimum Humidity 28    
Precipitation  
Precipitation 0.00 in - - ()
Sea Level Pressure  
Sea Level Pressure 29.93 in    
Wind  
Wind Speed 5 mph ()    
Max Wind Speed 25 mph    
Max Gust Speed 39 mph    
Visibility 7.5 miles    
Events      
T = Trace of Precipitation, MM = Missing Value Source: Averaged Metar Reports

Daily Weather History Graph

Daily Weather History Graph

Search for Another Location

Airport:

Trip Planner

Search our weather history database for the weather conditions in past years. The results will help you decide how hot, cold, wet, or windy it might be!

Date:

Astronomy

Feb. 13, 2014 Rise Set
Actual Time 8:08 AM CET 6:38 PM CET
Civil Twilight 7:39 AM CET 7:07 PM CET
Nautical Twilight 7:06 AM CET 7:40 PM CET
Astronomical Twilight 6:34 AM CET 8:13 PM CET
Moon 5:33 PM CET (2/13) 6:54 AM CET (2/13)
Length of Visible Light 11h 27m
Length of Day
10h 29m
Waxing Gibbous, 98% of the Moon is Illuminated
Feb 13
Waxing Gibbous
Feb 15
Full
Feb 22
Last Quarter
Mar 1
New
Mar 8
First Quarter

Hourly Weather History & Observations

Time (CET) Temp. Windchill Dew Point Humidity Pressure Visibility Wind Dir Wind Speed Gust Speed Precip Events Conditions
12:00 AM 42 °F - 39 °F 84% 30.02 in - South 4.6 mph - -  
12:00 AM 39.2 °F 33.6 °F 37.4 °F 93% 29.98 in 6.2 mi South 8.1 mph - N/A   Partly Cloudy
1:00 AM 37 °F - 36 °F 93% 30.01 in 12 mi Calm Calm - -   Scattered Clouds
1:00 AM 37.4 °F - 37.4 °F 100% 29.95 in 6.2 mi Variable 1.2 mph - N/A   Partly Cloudy
2:00 AM 38 °F - 37 °F 93% 30.00 in - Calm Calm - -  
2:00 AM 33.8 °F - 33.8 °F 100% 29.95 in 6.2 mi Variable 1.2 mph - N/A   Partly Cloudy
3:00 AM 35 °F - 34 °F 96% 29.98 in - NNW 1.2 mph - -  
3:00 AM 35.6 °F - 33.8 °F 93% 29.92 in 6.2 mi Calm Calm - N/A   Partly Cloudy
4:00 AM 37 °F - 37 °F 98% 29.98 in 12 mi SW 1.2 mph - -   Scattered Clouds
4:00 AM 33.8 °F 29.6 °F 33.8 °F 100% 29.92 in 6.2 mi South 4.6 mph - N/A   Partly Cloudy
5:00 AM 36 °F - 36 °F 99% 29.96 in - South 1.2 mph - -  
5:00 AM 35.6 °F - 35.6 °F 100% 29.92 in 6.2 mi Variable 1.2 mph - N/A   Partly Cloudy
6:00 AM 37 °F - 37 °F 98% 29.94 in - North 1.2 mph - -  
6:00 AM 35.6 °F 32.8 °F 35.6 °F 100% 29.89 in 6.2 mi South 3.5 mph - N/A   Partly Cloudy
7:00 AM 35 °F - 35 °F 99% 29.96 in 6 mi South 1.2 mph - -   Scattered Clouds
7:00 AM 35.6 °F - 35.6 °F 100% 29.89 in 6.2 mi Variable 2.3 mph - N/A   Partly Cloudy
8:00 AM 40 °F - 38 °F 89% 29.94 in - South 5.8 mph - -  
8:00 AM 37.4 °F 30.8 °F 35.6 °F 93% 29.89 in 6.2 mi SSE 9.2 mph - N/A   Scattered Clouds
9:00 AM 38 °F - 37 °F 94% 29.96 in - South 2.3 mph - -  
9:00 AM 39.2 °F 35.9 °F 37.4 °F 93% 29.92 in 6.2 mi North 4.6 mph - N/A   Scattered Clouds
10:00 AM 44 °F - 40 °F 80% 29.96 in 12 mi SE 4.6 mph - -   Mostly Cloudy
10:00 AM 42.8 °F 38.6 °F 41.0 °F 93% 29.92 in 6.2 mi SSE 6.9 mph - N/A   Mostly Cloudy
11:00 AM 46 °F - 41 °F 75% 29.98 in - NW 2.3 mph - -  
11:00 AM 46.4 °F - 41.0 °F 81% 29.95 in 6.2 mi Variable 2.3 mph 13.8 mph N/A   Mostly Cloudy
12:00 PM 49 °F - 42 °F 69% 29.97 in - West 2.3 mph - -  
12:00 PM 48.2 °F - 42.8 °F 82% 29.95 in 6.2 mi WNW 3.5 mph - N/A   Scattered Clouds
1:00 PM 53 °F - 44 °F 62% 29.91 in 12 mi East 3.5 mph - -   Partly Cloudy
1:00 PM 51.8 °F - 44.6 °F 76% 29.89 in 6.2 mi ESE 3.5 mph - N/A   Scattered Clouds
2:00 PM 59 °F - 46 °F 51% 29.91 in - SW 1.2 mph - -  
2:00 PM 60.8 °F - 46.4 °F 59% 29.92 in 6.2 mi Variable 2.3 mph - N/A   Scattered Clouds
3:00 PM 65 °F - 40 °F 29% 29.85 in - West 15.0 mph - -  
3:00 PM 66.2 °F - 42.8 °F 43% 29.86 in 6.2 mi West 20.7 mph - N/A   Scattered Clouds
4:00 PM 65 °F - 40 °F 28% 29.84 in 12 mi West 12.7 mph - -   Partly Cloudy
4:00 PM 66.2 °F - 41.0 °F 40% 29.86 in 6.2 mi West 18.4 mph - N/A   Scattered Clouds
5:00 PM 63 °F - 40 °F 32% 29.88 in - West 17.3 mph - -  
5:00 PM 64.4 °F - 41.0 °F 42% 29.89 in 6.2 mi West 25.3 mph 39.1 mph N/A   Scattered Clouds
6:00 PM 62 °F - 41 °F 34% 29.90 in - West 12.7 mph - -  
6:00 PM 62.6 °F - 42.8 °F 48% 29.92 in 6.2 mi West 19.6 mph - N/A   Scattered Clouds
7:00 PM 59 °F - 42 °F 43% 29.93 in 12 mi West 8.1 mph - -   Partly Cloudy
7:00 PM 59.0 °F - 44.6 °F 59% 29.92 in 6.2 mi West 15.0 mph - N/A   Scattered Clouds
9:00 PM 51 °F - 43 °F 67% 29.97 in - ESE 12.7 mph - -  
9:00 PM 50.0 °F - 44.6 °F 82% 29.95 in 6.2 mi ESE 6.9 mph - N/A   Partly Cloudy
10:00 PM 48 °F - 43 °F 76% 29.97 in 12 mi East 6.9 mph - -   Scattered Clouds
10:00 PM 48.2 °F - 42.8 °F 82% 29.95 in 6.2 mi East 8.1 mph - N/A   Partly Cloudy
11:00 PM 45 °F - 42 °F 86% 29.97 in - NNE 8.1 mph - -  
11:00 PM 46.4 °F 43.5 °F 42.8 °F 87% 29.95 in - NE 5.8 mph - N/A   Clear